Time,TemperatureF,DewpointF,PressureIn,WindDirection,WindDirectionDegrees,WindSpeedMPH,WindSpeedGustMPH,Humidity,HourlyPrecipIn,Conditions,Clouds,dailyrainin,SoftwareType,DateUTC
2013-02-13 00:01:00,70.0,70.0,29.97,SSW,197,5.0,9.0,100,99.99,,,-99.99,,2013-02-13 05:01:00,
2013-02-13 00:11:00,69.0,69.0,29.97,South,179,5.0,9.0,100,99.99,,,-99.99,,2013-02-13 05:11:00,
2013-02-13 00:22:00,69.0,69.0,29.97,South,179,5.0,9.0,100,99.99,,,-99.99,,2013-02-13 05:22:00,
2013-02-13 00:31:00,70.0,70.0,29.97,SW,218,6.0,12.0,100,99.99,,,-99.99,,2013-02-13 05:31:00,
2013-02-13 00:42:00,70.0,70.0,29.97,SW,218,6.0,12.0,100,99.99,,,-99.99,,2013-02-13 05:42:00,
2013-02-13 00:52:00,69.0,69.0,29.97,South,191,5.0,8.0,100,99.99,,,-99.99,,2013-02-13 05:52:00,
2013-02-13 01:02:00,69.0,69.0,29.96,South,179,5.0,8.0,100,99.99,,,-99.99,,2013-02-13 06:02:00,
2013-02-13 01:11:00,68.0,68.0,29.96,South,183,4.0,7.0,100,99.99,,,-99.99,,2013-02-13 06:11:00,
2013-02-13 01:21:00,68.0,68.0,29.96,South,183,4.0,7.0,100,99.99,,,-99.99,,2013-02-13 06:21:00,
2013-02-13 01:32:00,68.0,68.0,29.96,SSW,200,4.0,7.0,100,99.99,,,-99.99,,2013-02-13 06:32:00,
2013-02-13 01:42:00,68.0,68.0,29.96,SSW,207,4.0,7.0,100,99.99,,,-99.99,,2013-02-13 06:42:00,
2013-02-13 01:52:00,68.0,68.0,29.96,SSW,207,4.0,7.0,100,99.99,,,-99.99,,2013-02-13 06:52:00,
2013-02-13 02:02:00,68.0,68.0,29.96,SSW,200,3.0,5.0,100,99.99,,,-99.99,,2013-02-13 07:02:00,
2013-02-13 02:11:00,68.0,68.0,29.96,SSW,200,3.0,6.0,100,99.99,,,-99.99,,2013-02-13 07:11:00,
2013-02-13 02:22:00,68.0,68.0,29.96,SSW,200,3.0,6.0,100,99.99,,,-99.99,,2013-02-13 07:22:00,
2013-02-13 02:32:00,68.0,68.0,29.96,South,186,3.0,6.0,100,99.99,,,-99.99,,2013-02-13 07:32:00,
2013-02-13 02:42:00,68.0,68.0,29.95,SSW,201,3.0,6.0,100,99.99,,,-99.99,,2013-02-13 07:42:00,
2013-02-13 02:52:00,68.0,68.0,29.95,SSW,201,3.0,6.0,100,99.99,,,-99.99,,2013-02-13 07:52:00,
2013-02-13 03:01:00,68.0,68.0,29.95,SW,215,3.0,5.0,100,99.99,,,-99.99,,2013-02-13 08:01:00,
2013-02-13 03:11:00,68.0,68.0,29.95,SSW,201,3.0,6.0,100,99.99,,,-99.99,,2013-02-13 08:11:00,
2013-02-13 03:21:00,68.0,68.0,29.95,SSW,201,3.0,6.0,100,99.99,,,-99.99,,2013-02-13 08:21:00,
2013-02-13 03:32:00,68.0,68.0,29.95,SSW,210,5.0,7.0,100,99.99,,,-99.99,,2013-02-13 08:32:00,
2013-02-13 03:43:00,68.0,68.0,29.95,SSW,210,5.0,7.0,100,99.99,,,-99.99,,2013-02-13 08:43:00,
2013-02-13 03:52:00,68.0,68.0,29.95,SSW,193,6.0,10.0,100,99.99,,,-99.99,,2013-02-13 08:52:00,
2013-02-13 04:01:00,68.0,68.0,29.94,SSW,211,6.0,11.0,100,99.99,,,-99.99,,2013-02-13 09:01:00,
2013-02-13 04:11:00,69.0,69.0,29.93,SSW,208,6.0,10.0,100,99.99,,,-99.99,,2013-02-13 09:11:00,
2013-02-13 04:21:00,69.0,69.0,29.93,SSW,208,6.0,10.0,100,99.99,,,-99.99,,2013-02-13 09:21:00,
2013-02-13 04:31:00,69.0,69.0,29.93,SSW,205,9.0,15.0,100,99.99,,,-99.99,,2013-02-13 09:31:00,
2013-02-13 04:42:00,69.0,69.0,29.93,SSW,201,8.0,14.0,100,99.99,,,-99.99,,2013-02-13 09:42:00,
2013-02-13 04:52:00,69.0,69.0,29.93,SSW,201,8.0,14.0,100,99.99,,,-99.99,,2013-02-13 09:52:00,
2013-02-13 05:01:00,68.0,68.0,29.94,SSW,204,7.0,12.0,100,99.99,,,-99.99,,2013-02-13 10:01:00,
2013-02-13 05:11:00,68.0,68.0,29.94,SSW,207,4.0,7.0,100,99.99,,,-99.99,,2013-02-13 10:11:00,
2013-02-13 05:21:00,68.0,68.0,29.94,SSW,207,4.0,7.0,100,99.99,,,-99.99,,2013-02-13 10:21:00,
2013-02-13 05:32:00,68.0,68.0,29.93,SSW,208,6.0,12.0,100,99.99,,,-99.99,,2013-02-13 10:32:00,
2013-02-13 05:42:00,68.0,68.0,29.93,SSW,200,6.0,8.0,100,99.99,,,-99.99,,2013-02-13 10:42:00,
2013-02-13 05:52:00,68.0,68.0,29.93,SSW,200,6.0,8.0,100,99.99,,,-99.99,,2013-02-13 10:52:00,
2013-02-13 06:01:00,68.0,68.0,29.93,SSW,201,6.0,10.0,100,99.99,,,-99.99,,2013-02-13 11:01:00,
2013-02-13 06:11:00,68.0,68.0,29.95,SSW,212,5.0,8.0,100,99.99,,,-99.99,,2013-02-13 11:11:00,
2013-02-13 06:22:00,68.0,68.0,29.95,SSW,212,5.0,8.0,100,99.99,,,-99.99,,2013-02-13 11:22:00,
2013-02-13 06:32:00,68.0,68.0,29.94,South,187,7.0,12.0,100,99.99,,,-99.99,,2013-02-13 11:32:00,
2013-02-13 06:42:00,68.0,68.0,29.94,South,183,5.0,9.0,100,99.99,,,-99.99,,2013-02-13 11:42:00,
2013-02-13 06:52:00,68.0,68.0,29.94,South,183,5.0,9.0,100,99.99,,,-99.99,,2013-02-13 11:52:00,
2013-02-13 07:02:00,68.0,68.0,29.94,South,188,7.0,14.0,100,99.99,,,-99.99,,2013-02-13 12:02:00,
2013-02-13 07:11:00,68.0,68.0,29.94,SSW,198,7.0,13.0,100,99.99,,,-99.99,,2013-02-13 12:11:00,
2013-02-13 07:22:00,68.0,68.0,29.94,SSW,198,7.0,13.0,100,99.99,,,-99.99,,2013-02-13 12:22:00,
2013-02-13 07:32:00,68.0,68.0,29.96,SSW,207,7.0,11.0,100,99.99,,,-99.99,,2013-02-13 12:32:00,
2013-02-13 07:42:00,69.0,69.0,29.96,SSW,198,6.0,9.0,100,99.99,,,-99.99,,2013-02-13 12:42:00,
2013-02-13 07:52:00,69.0,69.0,29.96,SSW,198,6.0,9.0,100,99.99,,,-99.99,,2013-02-13 12:52:00,
2013-02-13 08:02:00,69.0,69.0,29.96,SW,229,8.0,13.0,100,99.99,,,-99.99,,2013-02-13 13:02:00,
2013-02-13 08:11:00,70.0,70.0,29.96,SSW,207,7.0,12.0,100,99.99,,,-99.99,,2013-02-13 13:11:00,
2013-02-13 08:21:00,70.0,70.0,29.96,SSW,207,7.0,12.0,100,99.99,,,-99.99,,2013-02-13 13:21:00,
2013-02-13 08:32:00,70.0,70.0,29.96,South,174,5.0,8.0,100,99.99,,,-99.99,,2013-02-13 13:32:00,
2013-02-13 08:42:00,71.0,71.0,29.96,South,176,5.0,8.0,100,99.99,,,-99.99,,2013-02-13 13:42:00,
2013-02-13 08:52:00,71.0,71.0,29.96,South,176,5.0,8.0,100,99.99,,,-99.99,,2013-02-13 13:52:00,
2013-02-13 09:01:00,71.0,71.0,29.96,SSW,193,7.0,15.0,100,99.99,,,-99.99,,2013-02-13 14:01:00,
2013-02-13 09:11:00,72.0,72.0,29.96,SSW,210,8.0,13.0,100,99.99,,,-99.99,,2013-02-13 14:11:00,
2013-02-13 09:21:00,72.0,72.0,29.96,SSW,210,8.0,13.0,100,99.99,,,-99.99,,2013-02-13 14:21:00,
2013-02-13 09:32:00,73.0,72.0,29.96,SSW,201,9.0,15.0,98,99.99,,,-99.99,,2013-02-13 14:32:00,
2013-02-13 09:42:00,73.0,72.0,29.96,South,183,10.0,19.0,96,99.99,,,-99.99,,2013-02-13 14:42:00,
2013-02-13 09:52:00,73.0,72.0,29.96,South,183,10.0,19.0,96,99.99,,,-99.99,,2013-02-13 14:52:00,
2013-02-13 10:01:00,74.0,72.0,29.97,South,191,9.0,15.0,95,99.99,,,-99.99,,2013-02-13 15:01:00,
2013-02-13 10:11:00,75.0,71.0,29.97,SW,214,10.0,17.0,88,99.99,,,-99.99,,2013-02-13 15:11:00,
2013-02-13 10:21:00,75.0,71.0,29.97,SW,214,10.0,17.0,88,99.99,,,-99.99,,2013-02-13 15:21:00,
2013-02-13 10:32:00,77.0,71.0,29.96,SW,228,9.0,16.0,82,99.99,,,-99.99,,2013-02-13 15:32:00,
2013-02-13 10:42:00,77.0,71.0,29.96,SW,228,9.0,16.0,82,99.99,,,-99.99,,2013-02-13 15:42:00,
2013-02-13 10:52:00,77.0,70.0,29.98,SW,221,11.0,22.0,80,99.99,,,-99.99,,2013-02-13 15:52:00,
2013-02-13 11:01:00,79.0,70.0,29.97,SW,224,9.0,16.0,74,99.99,,,-99.99,,2013-02-13 16:01:00,
2013-02-13 11:11:00,79.0,70.0,29.96,SW,221,11.0,22.0,73,99.99,,,-99.99,,2013-02-13 16:11:00,
2013-02-13 11:21:00,79.0,70.0,29.96,SW,221,11.0,22.0,73,99.99,,,-99.99,,2013-02-13 16:21:00,
2013-02-13 11:32:00,79.0,68.0,29.96,SW,235,12.0,19.0,68,99.99,,,-99.99,,2013-02-13 16:32:00,
2013-02-13 11:42:00,80.0,67.0,29.95,WSW,250,12.0,20.0,65,99.99,,,-99.99,,2013-02-13 16:42:00,
2013-02-13 11:51:00,80.0,67.0,29.95,WSW,250,12.0,20.0,65,99.99,,,-99.99,,2013-02-13 16:51:00,
2013-02-13 12:02:00,81.0,65.0,29.94,WSW,239,11.0,18.0,59,99.99,,,-99.99,,2013-02-13 17:02:00,
2013-02-13 12:11:00,82.0,65.0,29.93,WSW,246,12.0,21.0,56,99.99,,,-99.99,,2013-02-13 17:11:00,
2013-02-13 12:21:00,82.0,65.0,29.93,WSW,246,12.0,21.0,56,99.99,,,-99.99,,2013-02-13 17:21:00,
2013-02-13 12:32:00,83.0,66.0,29.92,SW,235,13.0,23.0,57,99.99,,,-99.99,,2013-02-13 17:32:00,
2013-02-13 12:42:00,83.0,66.0,29.92,SW,235,13.0,23.0,57,99.99,,,-99.99,,2013-02-13 17:42:00,
2013-02-13 12:52:00,84.0,66.0,29.91,SW,232,14.0,22.0,54,99.99,,,-99.99,,2013-02-13 17:52:00,
2013-02-13 13:02:00,85.0,64.0,29.90,SSW,205,13.0,23.0,50,99.99,,,-99.99,,2013-02-13 18:02:00,
2013-02-13 13:11:00,84.0,64.0,29.89,SW,229,11.0,20.0,52,99.99,,,-99.99,,2013-02-13 18:11:00,
2013-02-13 13:23:00,84.0,64.0,29.89,SW,229,11.0,20.0,52,99.99,,,-99.99,,2013-02-13 18:23:00,
2013-02-13 13:32:00,86.0,64.0,29.89,WSW,248,12.0,21.0,48,99.99,,,-99.99,,2013-02-13 18:32:00,
2013-02-13 13:42:00,86.0,64.0,29.89,WSW,248,12.0,21.0,48,99.99,,,-99.99,,2013-02-13 18:42:00,
2013-02-13 13:52:00,86.0,65.0,29.88,SW,233,12.0,20.0,49,99.99,,,-99.99,,2013-02-13 18:52:00,
2013-02-13 14:01:00,86.0,65.0,29.87,South,191,13.0,22.0,49,99.99,,,-99.99,,2013-02-13 19:01:00,
2013-02-13 14:11:00,85.0,64.0,29.86,WSW,256,13.0,22.0,50,99.99,,,-99.99,,2013-02-13 19:11:00,
2013-02-13 14:21:00,85.0,64.0,29.86,WSW,256,13.0,22.0,50,99.99,,,-99.99,,2013-02-13 19:21:00,
2013-02-13 14:32:00,85.0,65.0,29.86,WSW,242,9.0,17.0,51,99.99,,,-99.99,,2013-02-13 19:32:00,
2013-02-13 14:42:00,84.0,64.0,29.86,WSW,246,13.0,23.0,52,99.99,,,-99.99,,2013-02-13 19:42:00,
2013-02-13 14:52:00,84.0,64.0,29.86,WSW,246,13.0,23.0,52,99.99,,,-99.99,,2013-02-13 19:52:00,
2013-02-13 15:02:00,84.0,65.0,29.86,WSW,246,10.0,18.0,53,99.99,,,-99.99,,2013-02-13 20:02:00,
2013-02-13 15:11:00,84.0,66.0,29.85,WSW,256,12.0,22.0,54,99.99,,,-99.99,,2013-02-13 20:11:00,
2013-02-13 15:21:00,84.0,66.0,29.85,WSW,256,12.0,22.0,54,99.99,,,-99.99,,2013-02-13 20:21:00,
2013-02-13 15:31:00,85.0,65.0,29.86,SW,226,13.0,25.0,52,99.99,,,-99.99,,2013-02-13 20:31:00,
2013-02-13 15:42:00,84.0,65.0,29.85,SSW,208,11.0,16.0,53,99.99,,,-99.99,,2013-02-13 20:42:00,
2013-02-13 15:52:00,84.0,65.0,29.85,SSW,208,11.0,16.0,53,99.99,,,-99.99,,2013-02-13 20:52:00,
2013-02-13 16:01:00,84.0,66.0,29.85,WSW,239,12.0,20.0,54,99.99,,,-99.99,,2013-02-13 21:01:00,
2013-02-13 16:11:00,84.0,66.0,29.85,SSW,204,11.0,19.0,55,99.99,,,-99.99,,2013-02-13 21:11:00,
2013-02-13 16:21:00,84.0,66.0,29.85,SSW,204,11.0,19.0,55,99.99,,,-99.99,,2013-02-13 21:21:00,
2013-02-13 16:31:00,84.0,66.0,29.85,WSW,248,12.0,19.0,54,99.99,,,-99.99,,2013-02-13 21:31:00,
2013-02-13 16:42:00,83.0,66.0,29.86,WSW,245,12.0,19.0,57,99.99,,,-99.99,,2013-02-13 21:42:00,
2013-02-13 16:52:00,83.0,66.0,29.86,WSW,245,12.0,19.0,57,99.99,,,-99.99,,2013-02-13 21:52:00,
2013-02-13 17:02:00,83.0,66.0,29.86,West,262,13.0,22.0,57,99.99,,,-99.99,,2013-02-13 22:02:00,
2013-02-13 17:11:00,82.0,66.0,29.87,WSW,245,13.0,23.0,59,99.99,,,-99.99,,2013-02-13 22:11:00,
2013-02-13 17:21:00,82.0,66.0,29.87,WSW,245,13.0,23.0,59,99.99,,,-99.99,,2013-02-13 22:21:00,
2013-02-13 17:31:00,81.0,66.0,29.87,WSW,239,11.0,19.0,61,99.99,,,-99.99,,2013-02-13 22:31:00,
2013-02-13 17:42:00,81.0,66.0,29.87,WSW,239,11.0,19.0,61,99.99,,,-99.99,,2013-02-13 22:42:00,
2013-02-13 17:52:00,81.0,67.0,29.87,WSW,245,9.0,13.0,63,99.99,,,-99.99,,2013-02-13 22:52:00,
2013-02-13 18:01:00,80.0,67.0,29.87,WSW,256,10.0,18.0,64,99.99,,,-99.99,,2013-02-13 23:01:00,
2013-02-13 18:11:00,80.0,68.0,29.87,WSW,246,12.0,22.0,67,99.99,,,-99.99,,2013-02-13 23:11:00,
2013-02-13 18:21:00,80.0,68.0,29.87,WSW,246,12.0,22.0,67,99.99,,,-99.99,,2013-02-13 23:21:00,
2013-02-13 18:32:00,79.0,68.0,29.87,SW,228,9.0,15.0,69,99.99,,,-99.99,,2013-02-13 23:32:00,
2013-02-13 18:42:00,79.0,68.0,29.87,SW,228,9.0,15.0,69,99.99,,,-99.99,,2013-02-13 23:42:00,
2013-02-13 18:52:00,79.0,69.0,29.87,WSW,239,7.0,12.0,71,99.99,,,-99.99,,2013-02-13 23:52:00,
2013-02-13 19:02:00,78.0,69.0,29.87,SW,219,7.0,11.0,74,99.99,,,-99.99,,2013-02-14 00:02:00,
2013-02-13 19:11:00,78.0,69.0,29.87,SW,219,7.0,11.0,74,99.99,,,-99.99,,2013-02-14 00:11:00,
2013-02-13 19:21:00,78.0,69.0,29.88,WSW,245,6.0,10.0,75,99.99,,,-99.99,,2013-02-14 00:21:00,
2013-02-13 19:32:00,77.0,69.0,29.88,WSW,252,6.0,10.0,77,99.99,,,-99.99,,2013-02-14 00:32:00,
2013-02-13 19:42:00,77.0,69.0,29.88,WSW,252,6.0,10.0,77,99.99,,,-99.99,,2013-02-14 00:42:00,
2013-02-13 19:52:00,77.0,70.0,29.89,WSW,257,5.0,12.0,78,99.99,,,-99.99,,2013-02-14 00:52:00,
2013-02-13 20:01:00,77.0,70.0,29.90,WSW,253,7.0,13.0,80,99.99,,,-99.99,,2013-02-14 01:01:00,
2013-02-13 20:11:00,77.0,71.0,29.90,SSW,198,7.0,12.0,81,99.99,,,-99.99,,2013-02-14 01:11:00,
2013-02-13 20:21:00,77.0,71.0,29.90,SSW,198,7.0,12.0,81,99.99,,,-99.99,,2013-02-14 01:21:00,
2013-02-13 20:32:00,76.0,71.0,29.91,SW,221,6.0,12.0,84,99.99,,,-99.99,,2013-02-14 01:32:00,
2013-02-13 20:41:00,76.0,71.0,29.91,SW,221,6.0,12.0,84,99.99,,,-99.99,,2013-02-14 01:41:00,
2013-02-13 20:52:00,76.0,72.0,29.91,WSW,252,6.0,10.0,86,99.99,,,-99.99,,2013-02-14 01:52:00,
2013-02-13 21:01:00,75.0,71.0,29.92,West,266,6.0,10.0,87,99.99,,,-99.99,,2013-02-14 02:01:00,
2013-02-13 21:11:00,67.0,64.0,29.94,West,278,10.0,21.0,90,99.99,,,-99.99,,2013-02-14 02:11:00,
2013-02-13 21:21:00,67.0,64.0,29.94,West,278,10.0,21.0,90,99.99,,,-99.99,,2013-02-14 02:21:00,
2013-02-13 21:32:00,66.0,63.0,29.94,NNW,335,7.0,12.0,91,99.99,,,-99.99,,2013-02-14 02:32:00,
2013-02-13 21:41:00,66.0,63.0,29.94,NNW,335,7.0,12.0,91,99.99,,,-99.99,,2013-02-14 02:41:00,
2013-02-13 21:52:00,66.0,63.0,29.94,NNW,335,7.0,12.0,91,99.99,,,-99.99,,2013-02-14 02:52:00,
2013-02-13 22:02:00,65.0,62.0,29.97,NW,316,6.0,10.0,89,99.99,,,-99.99,,2013-02-14 03:02:00,
2013-02-13 22:11:00,65.0,61.0,29.96,NNW,332,6.0,8.0,86,99.99,,,-99.99,,2013-02-14 03:11:00,
2013-02-13 22:22:00,65.0,61.0,29.96,NNW,332,6.0,8.0,86,99.99,,,-99.99,,2013-02-14 03:22:00,
2013-02-13 22:31:00,65.0,60.0,29.96,NNW,343,3.0,7.0,85,99.99,,,-99.99,,2013-02-14 03:31:00,
2013-02-13 22:42:00,65.0,60.0,29.97,North,349,3.0,8.0,84,99.99,,,-99.99,,2013-02-14 03:42:00,
2013-02-13 22:52:00,65.0,60.0,29.97,North,349,3.0,8.0,84,99.99,,,-99.99,,2013-02-14 03:52:00,
2013-02-13 23:01:00,65.0,59.0,29.97,NW,311,4.0,7.0,82,99.99,,,-99.99,,2013-02-14 04:01:00,
2013-02-13 23:12:00,65.0,60.0,29.98,NW,325,3.0,6.0,83,99.99,,,-99.99,,2013-02-14 04:12:00,
2013-02-13 23:21:00,65.0,60.0,29.98,NW,325,3.0,6.0,83,99.99,,,-99.99,,2013-02-14 04:21:00,
2013-02-13 23:32:00,65.0,60.0,29.98,North,357,2.0,7.0,85,99.99,,,-99.99,,2013-02-14 04:32:00,
2013-02-13 23:41:00,65.0,60.0,29.98,North,357,2.0,7.0,85,99.99,,,-99.99,,2013-02-14 04:41:00,
2013-02-13 23:52:00,65.0,60.0,29.98,North,354,1.0,4.0,83,99.99,,,-99.99,,2013-02-14 04:52:00,